User: anonymous   Login
Location: Unspecified
(0.0000°N, 0.0000°E)
Time: 12:46:20
(UTC+00:00)
Language:

SJ-6C - Orbit

View from above orbital plane
View from above orbital plane
View from above satellite
View from above satellite

Ground track
Ground track

The orbit data is extracted from the following two-line orbital elements,

1 29505U 06046A   18201.14543876 -.00000515  00000-0 -42411-4 0  9996
2 29505  97.8265 206.8374 0002212 179.0107 181.1109 14.94447555639302
Epoch (UTC): 20 July 2018 03:29:25
Eccentricity: 0.0002212
inclination: 97.8265°
perigee height: 582 km
apogee height: 585 km
right ascension of ascending node: 206.8374°
argument of perigee: 179.0107°
revolutions per day: 14.94447555
mean anomaly at epoch: 181.1109°
orbit number at epoch: 63930

The dashed part of the orbit path shows where the satellite is in the earth's shadow,  

DLR